Location: La Spezia
(44.1170°N, 9.8330°E)
Time: 05:23:21
(UTC+01:00)

ISS - Visible Passes

Search period start: 20 January 2019 00:00
Search period end: 30 January 2019 00:00
Orbit: 404 x 410 km, 51.6° (Epoch: 20 January)

Date Brightness Start Highest point End Pass type
(mag) Time Alt. Az. Time Alt. Az. Time Alt. Az.
21 Jan -1.7 18:44:32 10° S 18:46:04 15° SE 18:46:04 15° SE visible
22 Jan -2.1 19:28:06 10° SW 19:29:55 29° SW 19:29:55 29° SW visible
23 Jan -2.9 18:37:02 10° SSW 18:40:04 34° SE 18:40:56 29° ESE visible
23 Jan -0.3 20:13:26 10° W 20:13:40 12° W 20:13:40 12° W visible
24 Jan -3.1 19:21:50 10° WSW 19:24:36 52° WNW 19:24:36 52° WNW visible
25 Jan -3.9 18:30:23 10° SW 18:33:41 81° SSE 18:35:27 25° ENE visible
25 Jan -0.5 20:07:37 10° WNW 20:08:10 13° WNW 20:08:10 13° WNW visible
26 Jan -2.6 19:15:51 10° W 19:18:56 34° NNW 19:18:57 34° NNW visible
27 Jan -3.2 18:24:10 10° WSW 18:27:23 49° NNW 18:29:41 17° NE visible
27 Jan -0.7 20:01:46 10° WNW 20:02:24 13° NW 20:02:24 13° NW visible
28 Jan -2.2 19:10:00 10° WNW 19:12:48 25° NNW 19:13:05 25° N visible
29 Jan -2.4 18:18:11 10° W 18:21:10 30° NNW 18:23:44 13° NE visible
29 Jan -0.9 19:55:45 10° NW 19:56:27 14° NW 19:56:27 14° NW visible
